| time (UTC) | temp C | wind direction | speed KPH | gust KPH | rain 1hr cm | rain 24hr cm | rain mn cm | humidity % | barometer mb |
| 20260502163542 | 23 | 56 | 11.3 | 25.7 | 0.00 | 0.00 | 0.00 | 39 | 1013.0 |
| 20260502163056 | 23 | 14 | 14.5 | 25.7 | 0.00 | 0.00 | 0.00 | 39 | 1013.1 |
| 20260502162605 | 23 | 49 | 9.7 | 22.5 | 0.00 | 0.00 | 0.00 | 39 | 1013.1 |
| 20260502162041 | 23 | 41 | 11.3 | 22.5 | 0.00 | 0.00 | 0.00 | 39 | 1013.1 |
| 20260502161555 | 23 | 50 | 8.0 | 20.9 | 0.00 | 0.00 | 0.00 | 38 | 1013.1 |
| 20260502161047 | 24 | 43 | 9.7 | 20.9 | 0.00 | 0.00 | 0.00 | 39 | 1013.1 |
| 20260502160541 | 24 | 63 | 11.3 | 20.9 | 0.00 | 0.00 | 0.00 | 38 | 1013.1 |
| 20260502152042 | 25 | 333 | 12.9 | 19.3 | 0.00 | 0.00 | 0.00 | 34 | 1013.6 |
| 20260502151553 | 25 | 75 | 11.3 | 24.1 | 0.00 | 0.00 | 0.00 | 34 | 1013.7 |
| 20260502151041 | 25 | 25 | 11.3 | 24.1 | 0.00 | 0.00 | 0.00 | 35 | 1013.7 |
| 20260502150541 | 25 | 11 | 9.7 | 17.7 | 0.00 | 0.00 | 0.00 | 35 | 1013.8 |
| 20260502130542 | 23 | 33 | 9.7 | 14.5 | 0.00 | 0.00 | 0.00 | 44 | 1016.1 |
| 20260502123541 | 22 | 46 | 8.0 | 14.5 | 0.00 | 0.00 | 0.00 | 43 | 1016.6 |
| 20260502123101 | 22 | 51 | 8.0 | 12.9 | 0.00 | 0.00 | 0.00 | 43 | 1016.7 |
| 20260502122542 | 22 | 44 | 6.4 | 17.7 | 0.00 | 0.00 | 0.00 | 46 | 1016.7 |
| 20260502122042 | 22 | 59 | 9.7 | 17.7 | 0.00 | 0.00 | 0.00 | 44 | 1016.8 |
| 20260502121601 | 22 | 306 | 11.3 | 17.7 | 0.00 | 0.00 | 0.00 | 46 | 1017.0 |
| 20260502121041 | 22 | 292 | 8.0 | 17.7 | 0.00 | 0.00 | 0.00 | 43 | 1017.0 |
| 20260502120542 | 22 | 350 | 11.3 | 17.7 | 0.00 | 0.00 | 0.00 | 43 | 1017.1 |
| 20260502115541 | 21 | 314 | 9.7 | 17.7 | 0.00 | 0.00 | 0.00 | 46 | 1017.3 |
| 20260502115041 | 21 | 283 | 8.0 | 17.7 | 0.00 | 0.00 | 0.00 | 46 | 1017.5 |
| 20260502114558 | 21 | 255 | 3.2 | 16.1 | 0.00 | 0.00 | 0.00 | 47 | 1017.5 |
| 20260502114043 | 21 | 240 | 8.0 | 17.7 | 0.00 | 0.00 | 0.00 | 46 | 1017.7 |
| 20260502113541 | 21 | 264 | 9.7 | 17.7 | 0.00 | 0.00 | 0.00 | 49 | 1017.7 |
| 20260502113052 | 21 | 269 | 9.7 | 17.7 | 0.00 | 0.00 | 0.00 | 48 | 1017.9 |
| 20260502112542 | 21 | 277 | 8.0 | 16.1 | 0.00 | 0.00 | 0.00 | 49 | 1018.1 |
| 20260502112042 | 20 | 240 | 8.0 | 17.7 | 0.00 | 0.00 | 0.00 | 48 | 1018.3 |
| 20260502111552 | 20 | 227 | 6.4 | 17.7 | 0.00 | 0.00 | 0.00 | 48 | 1018.3 |
| 20260502111042 | 20 | 281 | 9.7 | 17.7 | 0.00 | 0.00 | 0.00 | 47 | 1018.5 |
| 20260502110542 | 20 | 60 | 4.8 | 11.3 | 0.00 | 0.00 | 0.00 | 49 | 1018.6 |
| 20260502105545 | 20 | 252 | 3.2 | 14.5 | 0.00 | 0.00 | 0.00 | 52 | 1018.9 |
| 20260502105041 | 20 | 117 | 8.0 | 14.5 | 0.00 | 0.00 | 0.00 | 51 | 1019.0 |
| 20260502104557 | 20 | 278 | 4.8 | 17.7 | 0.00 | 0.00 | 0.00 | 52 | 1019.0 |
| 20260502104041 | 20 | 233 | 9.7 | 17.7 | 0.00 | 0.00 | 0.00 | 52 | 1019.2 |
| 20260502103542 | 20 | 273 | 11.3 | 17.7 | 0.00 | 0.00 | 0.00 | 52 | 1019.2 |
| 20260502103101 | 19 | 297 | 6.4 | 16.1 | 0.00 | 0.00 | 0.00 | 55 | 1019.4 |
| 20260502102545 | 18 | 260 | 8.0 | 16.1 | 0.00 | 0.00 | 0.00 | 52 | 1019.5 |
| 20260502102042 | 18 | 247 | 9.7 | 16.1 | 0.00 | 0.00 | 0.00 | 53 | 1019.6 |
| 20260502101622 | 18 | 271 | 4.8 | 14.5 | 0.00 | 0.00 | 0.00 | 54 | 1019.8 |
| 20260502101041 | 18 | 248 | 3.2 | 14.5 | 0.00 | 0.00 | 0.00 | 54 | 1019.9 |
| 20260502100544 | 18 | 243 | 6.4 | 14.5 | 0.00 | 0.00 | 0.00 | 55 | 1020.0 |
| 20260502100116 | 18 | 30 | 8.0 | 14.5 | 0.00 | 0.00 | 0.00 | 54 | 1020.2 |
| 20260502091042 | 17 | 337 | 6.4 | 11.3 | 0.00 | 0.00 | 0.00 | 55 | 1021.3 |
| 20260502090541 | 16 | 281 | 4.8 | 8.0 | 0.00 | 0.00 | 0.00 | 53 | 1021.3 |
| 20260502071042 | 13 | 0 | 0.0 | 8.0 | 0.00 | 0.00 | 0.00 | 64 | 1022.9 |
| 20260502070541 | 13 | 250 | 3.2 | 8.0 | 0.00 | 0.00 | 0.00 | 62 | 1023.0 |
| 20260502070055 | 13 | 0 | 0.0 | 4.8 | 0.00 | 0.00 | 0.00 | 64 | 1023.0 |
| 20260502065542 | 13 | 44 | 0.0 | 4.8 | 0.00 | 0.00 | 0.00 | 65 | 1023.1 |
| 20260502065041 | 13 | 33 | 1.6 | 6.4 | 0.00 | 0.00 | 0.00 | 65 | 1023.1 |
| 20260502064552 | 12 | 0 | 1.6 | 6.4 | 0.00 | 0.00 | 0.00 | 66 | 1023.2 |
| 20260502064041 | 12 | 239 | 1.6 | 6.4 | 0.00 | 0.00 | 0.00 | 67 | 1023.2 |
| 20260502063541 | 12 | 331 | 1.6 | 6.4 | 0.00 | 0.00 | 0.00 | 66 | 1023.3 |
| 20260502063054 | 12 | 26 | 3.2 | 4.8 | 0.00 | 0.00 | 0.00 | 66 | 1023.3 |
| 20260502062543 | 13 | 359 | 1.6 | 4.8 | 0.00 | 0.00 | 0.00 | 67 | 1023.4 |
| 20260502062041 | 12 | 42 | 0.0 | 3.2 | 0.00 | 0.00 | 0.00 | 68 | 1023.5 |
| 20260502061554 | 12 | 50 | 0.0 | 3.2 | 0.00 | 0.00 | 0.00 | 73 | 1023.5 |
| 20260502061043 | 12 | 58 | 0.0 | 1.6 | 0.00 | 0.00 | 0.00 | 72 | 1023.5 |
| 20260502060541 | 12 | 0 | 0.0 | 1.6 | 0.00 | 0.00 | 0.00 | 74 | 1023.5 |
| 20260502060057 | 12 | 0 | 0.0 | 1.6 | 0.00 | 0.00 | 0.00 | 76 | 1023.6 |
| 20260502055542 | 11 | 0 | 0.0 | 1.6 | 0.00 | 0.00 | 0.00 | 77 | 1023.7 |
| 20260502055042 | 11 | 0 | 0.0 | 1.6 | 0.00 | 0.00 | 0.00 | 76 | 1023.7 |
| 20260502054558 | 11 | 0 | 0.0 | 1.6 | 0.00 | 0.00 | 0.00 | 76 | 1023.8 |
| 20260502054041 | 11 | 0 | 0.0 | 1.6 | 0.00 | 0.00 | 0.00 | 78 | 1023.7 |
| 20260502053541 | 10 | 0 | 0.0 | 1.6 | 0.00 | 0.00 | 0.00 | 81 | 1023.7 |
| 20260502053109 | 9 | 0 | 0.0 | 1.6 | 0.00 | 0.00 | 0.00 | 84 | 1023.7 |
| 20260502052541 | 8 | 0 | 0.0 | 0.0 | 0.00 | 0.00 | 0.00 | 84 | 1023.7 |
| 20260502052041 | 8 | 0 | 0.0 | 3.2 | 0.00 | 0.00 | 0.00 | 84 | 1023.7 |
| 20260502051555 | 8 | 0 | 0.0 | 3.2 | 0.00 | 0.00 | 0.00 | 85 | 1023.8 |
| 20260502051044 | 8 | 28 | 1.6 | 3.2 | 0.00 | 0.00 | 0.00 | 83 | 1023.7 |
| 20260502050541 | 8 | 0 | 0.0 | 0.0 | 0.00 | 0.00 | 0.00 | 84 | 1023.7 |
| 20260502050053 | 7 | 0 | 0.0 | 0.0 | 0.00 | 0.00 | 0.00 | 84 | 1023.6 |
| 20260502045541 | 7 | 0 | 0.0 | 0.0 | 0.00 | 0.00 | 0.00 | 85 | 1023.7 |
| 20260502045041 | 6 | 0 | 0.0 | 1.6 | 0.00 | 0.00 | 0.00 | 87 | 1023.6 |
| 20260502044549 | 6 | 0 | 0.0 | 1.6 | 0.00 | 0.00 | 0.00 | 87 | 1023.5 |
| 20260502044042 | 5 | 39 | 0.0 | 1.6 | 0.00 | 0.00 | 0.00 | 87 | 1023.6 |
| 20260502043541 | 5 | 0 | 0.0 | 3.2 | 0.00 | 0.00 | 0.00 | 86 | 1023.5 |
| 20260502043053 | 6 | 0 | 0.0 | 3.2 | 0.00 | 0.00 | 0.00 | 84 | 1023.5 |
| 20260502042542 | 6 | 0 | 0.0 | 0.0 | 0.00 | 0.00 | 0.00 | 87 | 1023.4 |
| 20260502042042 | 6 | 0 | 0.0 | 0.0 | 0.00 | 0.00 | 0.00 | 87 | 1023.5 |
| 20260502041549 | 6 | 0 | 0.0 | 0.0 | 0.00 | 0.00 | 0.00 | 86 | 1023.5 |
| 20260502041041 | 6 | 0 | 0.0 | 4.8 | 0.00 | 0.00 | 0.00 | 86 | 1023.5 |
| 20260502040541 | 6 | 0 | 1.6 | 4.8 | 0.00 | 0.00 | 0.00 | 84 | 1023.4 |
| 20260502040051 | 6 | 0 | 0.0 | 0.0 | 0.00 | 0.00 | 0.00 | 84 | 1023.4 |
| 20260502035541 | 6 | 0 | 0.0 | 0.0 | 0.00 | 0.00 | 0.00 | 85 | 1023.4 |
| 20260502035043 | 6 | 0 | 0.0 | 0.0 | 0.00 | 0.00 | 0.00 | 85 | 1023.3 |
| 20260502034554 | 6 | 0 | 0.0 | 0.0 | 0.00 | 0.00 | 0.00 | 85 | 1023.3 |
| 20260502034041 | 6 | 0 | 0.0 | 0.0 | 0.00 | 0.00 | 0.00 | 85 | 1023.2 |
| 20260502033544 | 6 | 0 | 0.0 | 0.0 | 0.00 | 0.00 | 0.00 | 84 | 1023.2 |
| 20260502033058 | 6 | 0 | 0.0 | 1.6 | 0.00 | 0.00 | 0.00 | 84 | 1023.1 |
| 20260502032540 | 6 | 0 | 0.0 | 1.6 | 0.00 | 0.00 | 0.00 | 83 | 1023.1 |
| 20260502032043 | 7 | 0 | 0.0 | 4.8 | 0.00 | 0.00 | 0.00 | 81 | 1023.1 |
| 20260502031556 | 7 | 92 | 0.0 | 4.8 | 0.00 | 0.00 | 0.00 | 79 | 1023.1 |
| 20260502031042 | 8 | 94 | 1.6 | 4.8 | 0.00 | 0.00 | 0.00 | 78 | 1023.1 |
| 20260502030542 | 8 | 90 | 0.0 | 3.2 | 0.00 | 0.00 | 0.00 | 79 | 1023.0 |
| 20260502030058 | 8 | 0 | 0.0 | 6.4 | 0.00 | 0.00 | 0.00 | 80 | 1023.1 |
| 20260502025541 | 8 | 0 | 1.6 | 6.4 | 0.00 | 0.00 | 0.00 | 79 | 1023.0 |
| 20260502025041 | 8 | 104 | 4.8 | 6.4 | 0.00 | 0.00 | 0.00 | 80 | 1023.0 |
| 20260502024553 | 7 | 91 | 4.8 | 4.8 | 0.00 | 0.00 | 0.00 | 85 | 1023.0 |
| 20260502024045 | 6 | 90 | 1.6 | 1.6 | 0.00 | 0.00 | 0.00 | 85 | 1023.1 |
| 20260502023541 | 7 | 0 | 0.0 | 1.6 | 0.00 | 0.00 | 0.00 | 82 | 1023.1 |
| 20260502023109 | 7 | 0 | 0.0 | 1.6 | 0.00 | 0.00 | 0.00 | 83 | 1022.9 |
| 20260502022542 | 7 | 60 | 0.0 | 1.6 | 0.00 | 0.00 | 0.00 | 82 | 1022.9 |
| 20260502022040 | 7 | 0 | 0.0 | 1.6 | 0.00 | 0.00 | 0.00 | 81 | 1022.9 |
| 20260502021549 | 7 | 0 | 0.0 | 1.6 | 0.00 | 0.00 | 0.00 | 81 | 1022.9 |
| 20260502021041 | 7 | 0 | 0.0 | 1.6 | 0.00 | 0.00 | 0.00 | 80 | 1022.9 |
| 20260502020543 | 8 | 60 | 0.0 | 0.0 | 0.00 | 0.00 | 0.00 | 80 | 1022.9 |
| 20260502020049 | 7 | 0 | 0.0 | 1.6 | 0.00 | 0.00 | 0.00 | 81 | 1022.9 |
| 20260502015543 | 7 | 0 | 0.0 | 1.6 | 0.00 | 0.00 | 0.00 | 80 | 1022.8 |
| 20260502015041 | 7 | 59 | 0.0 | 0.0 | 0.00 | 0.00 | 0.00 | 81 | 1022.9 |
| 20260502014552 | 7 | 0 | 0.0 | 0.0 | 0.00 | 0.00 | 0.00 | 80 | 1022.8 |
| 20260502014042 | 8 | 0 | 0.0 | 0.0 | 0.00 | 0.00 | 0.00 | 80 | 1022.9 |
| 20260502013542 | 8 | 0 | 0.0 | 1.6 | 0.00 | 0.00 | 0.00 | 80 | 1022.9 |
| 20260502013050 | 8 | 0 | 0.0 | 1.6 | 0.00 | 0.00 | 0.00 | 78 | 1022.9 |
| 20260502012542 | 8 | 0 | 0.0 | 1.6 | 0.00 | 0.00 | 0.00 | 77 | 1022.9 |
| 20260502012041 | 8 | 58 | 1.6 | 1.6 | 0.00 | 0.00 | 0.00 | 77 | 1022.9 |
| 20260502011555 | 8 | 0 | 0.0 | 1.6 | 0.00 | 0.00 | 0.00 | 76 | 1022.9 |
| 20260502011040 | 8 | 0 | 0.0 | 1.6 | 0.00 | 0.00 | 0.00 | 77 | 1022.9 |
| 20260502010545 | 8 | 83 | 0.0 | 1.6 | 0.00 | 0.00 | 0.00 | 77 | 1022.9 |
| 20260502010048 | 8 | 0 | 0.0 | 1.6 | 0.00 | 0.00 | 0.00 | 77 | 1022.9 |
| 20260502005542 | 8 | 0 | 0.0 | 1.6 | 0.00 | 0.00 | 0.00 | 77 | 1022.9 |
| 20260502005041 | 9 | 0 | 0.0 | 1.6 | 0.00 | 0.00 | 0.00 | 77 | 1022.8 |
| 20260502004607 | 8 | 84 | 0.0 | 1.6 | 0.00 | 0.00 | 0.00 | 78 | 1022.8 |
| 20260502004041 | 8 | 0 | 0.0 | 1.6 | 0.00 | 0.00 | 0.00 | 76 | 1022.8 |
| 20260502003543 | 9 | 0 | 0.0 | 0.0 | 0.00 | 0.00 | 0.00 | 76 | 1022.8 |
| 20260502003044 | 9 | 0 | 0.0 | 0.0 | 0.00 | 0.00 | 0.00 | 75 | 1022.8 |
| 20260502002545 | 9 | 0 | 0.0 | 1.6 | 0.00 | 0.00 | 0.00 | 75 | 1022.8 |
| 20260502002041 | 9 | 0 | 0.0 | 1.6 | 0.00 | 0.00 | 0.00 | 75 | 1022.7 |
| 20260502001553 | 9 | 84 | 0.0 | 1.6 | 0.00 | 0.00 | 0.00 | 73 | 1022.7 |
| 20260502001048 | 9 | 0 | 0.0 | 3.2 | 0.00 | 0.00 | 0.00 | 74 | 1022.7 |
| 20260502000541 | 10 | 0 | 0.0 | 4.8 | 0.00 | 0.00 | 0.00 | 74 | 1022.6 |
| 20260502000054 | 10 | 84 | 0.0 | 4.8 | 0.00 | 0.00 | 0.00 | 73 | 1022.6 |
| 20260501235544 | 10 | 84 | 3.2 | 4.8 | 0.00 | 0.00 | 0.00 | 74 | 1022.7 |
| 20260501235041 | 9 | 70 | 0.0 | 1.6 | 0.00 | 0.00 | 0.00 | 76 | 1022.7 |
| 20260501234551 | 10 | 0 | 0.0 | 0.0 | 0.00 | 0.00 | 0.00 | 73 | 1022.7 |
| 20260501234041 | 10 | 0 | 0.0 | 0.0 | 0.00 | 0.00 | 0.00 | 70 | 1022.7 |
| 20260501233541 | 10 | 0 | 0.0 | 1.6 | 0.00 | 0.00 | 0.00 | 69 | 1022.7 |
| 20260501233055 | 10 | 0 | 0.0 | 1.6 | 0.00 | 0.00 | 0.00 | 68 | 1022.6 |
| 20260501232541 | 10 | 69 | 0.0 | 3.2 | 0.00 | 0.00 | 0.00 | 68 | 1022.6 |
| 20260501232041 | 10 | 0 | 0.0 | 3.2 | 0.00 | 0.00 | 0.00 | 70 | 1022.6 |
| 20260501231601 | 10 | 63 | 0.0 | 1.6 | 0.00 | 0.00 | 0.00 | 71 | 1022.6 |
| 20260501231041 | 11 | 54 | 0.0 | 4.8 | 0.00 | 0.00 | 0.00 | 70 | 1022.5 |
| 20260501230541 | 11 | 0 | 0.0 | 6.4 | 0.00 | 0.00 | 0.00 | 65 | 1022.5 |
| 20260501230049 | 12 | 11 | 0.0 | 6.4 | 0.00 | 0.00 | 0.00 | 63 | 1022.4 |
| 20260501225544 | 12 | 96 | 3.2 | 6.4 | 0.00 | 0.00 | 0.00 | 62 | 1022.3 |
| 20260501225040 | 11 | 96 | 3.2 | 6.4 | 0.00 | 0.00 | 0.00 | 65 | 1022.4 |
| 20260501224555 | 11 | 96 | 1.6 | 4.8 | 0.00 | 0.00 | 0.00 | 66 | 1022.3 |
| 20260501224040 | 11 | 70 | 0.0 | 1.6 | 0.00 | 0.00 | 0.00 | 64 | 1022.4 |
| 20260501223540 | 12 | 0 | 0.0 | 1.6 | 0.00 | 0.00 | 0.00 | 62 | 1022.4 |
| 20260501223108 | 12 | 69 | 0.0 | 3.2 | 0.00 | 0.00 | 0.00 | 63 | 1022.3 |
| 20260501222542 | 12 | 0 | 0.0 | 6.4 | 0.00 | 0.00 | 0.00 | 61 | 1022.3 |
| 20260501222042 | 12 | 37 | 1.6 | 6.4 | 0.00 | 0.00 | 0.00 | 60 | 1022.2 |
| 20260501221551 | 12 | 70 | 0.0 | 4.8 | 0.00 | 0.00 | 0.00 | 60 | 1022.2 |
| 20260501221041 | 12 | 51 | 1.6 | 3.2 | 0.00 | 0.00 | 0.00 | 61 | 1022.1 |
| 20260501220541 | 13 | 0 | 0.0 | 9.7 | 0.00 | 0.00 | 0.00 | 59 | 1021.9 |
| 20260501220051 | 13 | 0 | 3.2 | 9.7 | 0.00 | 0.00 | 0.00 | 57 | 1021.9 |
| 20260501215541 | 13 | 112 | 6.4 | 9.7 | 0.00 | 0.00 | 0.00 | 58 | 1021.8 |
| 20260501215045 | 13 | 93 | 1.6 | 6.4 | 0.00 | 0.00 | 0.00 | 60 | 1021.8 |
| 20260501214550 | 13 | 56 | 0.0 | 9.7 | 0.00 | 0.00 | 0.00 | 57 | 1021.7 |
| 20260501214044 | 13 | 82 | 3.2 | 16.1 | 0.00 | 0.00 | 0.00 | 57 | 1021.7 |
| 20260501213544 | 14 | 86 | 6.4 | 16.1 | 0.00 | 0.00 | 0.00 | 54 | 1021.6 |
| 20260501213110 | 14 | 42 | 8.0 | 16.1 | 0.00 | 0.00 | 0.00 | 54 | 1021.6 |
| 20260501212545 | 14 | 99 | 4.8 | 11.3 | 0.00 | 0.00 | 0.00 | 54 | 1021.6 |
| 20260501212045 | 14 | 79 | 3.2 | 11.3 | 0.00 | 0.00 | 0.00 | 54 | 1021.5 |
| 20260501211553 | 14 | 122 | 6.4 | 11.3 | 0.00 | 0.00 | 0.00 | 54 | 1021.5 |
| 20260501211042 | 13 | 83 | 1.6 | 16.1 | 0.00 | 0.00 | 0.00 | 55 | 1021.4 |
| 20260501210543 | 14 | 70 | 4.8 | 16.1 | 0.00 | 0.00 | 0.00 | 55 | 1021.4 |
| 20260501210055 | 13 | 93 | 6.4 | 14.5 | 0.00 | 0.00 | 0.00 | 55 | 1021.4 |
| 20260501205542 | 13 | 85 | 4.8 | 9.7 | 0.00 | 0.00 | 0.00 | 56 | 1021.3 |
| 20260501205042 | 13 | 68 | 0.0 | 9.7 | 0.00 | 0.00 | 0.00 | 60 | 1021.3 |
| 20260501204548 | 13 | 80 | 0.0 | 6.4 | 0.00 | 0.00 | 0.00 | 59 | 1021.1 |
| 20260501204041 | 13 | 47 | 3.2 | 6.4 | 0.00 | 0.00 | 0.00 | 58 | 1021.1 |
| 20260501203541 | 13 | 71 | 0.0 | 4.8 | 0.00 | 0.00 | 0.00 | 57 | 1021.0 |
| 20260501203101 | 13 | 69 | 0.0 | 4.8 | 0.00 | 0.00 | 0.00 | 57 | 1021.0 |
| 20260501202541 | 13 | 62 | 3.2 | 4.8 | 0.00 | 0.00 | 0.00 | 57 | 1020.9 |
| 20260501202041 | 13 | 57 | 0.0 | 4.8 | 0.00 | 0.00 | 0.00 | 56 | 1020.9 |
| 20260501201547 | 13 | 78 | 0.0 | 4.8 | 0.00 | 0.00 | 0.00 | 56 | 1020.7 |
| 20260501201047 | 13 | 0 | 0.0 | 3.2 | 0.00 | 0.00 | 0.00 | 56 | 1020.7 |
| 20260501200547 | 14 | 65 | 0.0 | 3.2 | 0.00 | 0.00 | 0.00 | 56 | 1020.6 |
| 20260501200052 | 14 | 64 | 0.0 | 6.4 | 0.00 | 0.00 | 0.00 | 55 | 1020.5 |
| 20260501195542 | 14 | 60 | 1.6 | 6.4 | 0.00 | 0.00 | 0.00 | 55 | 1020.5 |
| 20260501195044 | 14 | 61 | 0.0 | 6.4 | 0.00 | 0.00 | 0.00 | 56 | 1020.4 |
| 20260501194551 | 14 | 75 | 0.0 | 4.8 | 0.00 | 0.00 | 0.00 | 56 | 1020.2 |
| 20260501194042 | 14 | 75 | 0.0 | 4.8 | 0.00 | 0.00 | 0.00 | 54 | 1020.1 |
| 20260501193545 | 14 | 0 | 1.6 | 4.8 | 0.00 | 0.00 | 0.00 | 56 | 1020.1 |
| 20260501193047 | 14 | 347 | 0.0 | 3.2 | 0.00 | 0.00 | 0.00 | 56 | 1020.1 |
| 20260501192541 | 14 | 78 | 1.6 | 4.8 | 0.00 | 0.00 | 0.00 | 55 | 1019.9 |
| 20260501192041 | 15 | 65 | 0.0 | 4.8 | 0.00 | 0.00 | 0.00 | 55 | 1019.8 |
| 20260501191547 | 15 | 60 | 0.0 | 4.8 | 0.00 | 0.00 | 0.00 | 54 | 1019.7 |
| 20260501191041 | 15 | 0 | 1.6 | 4.8 | 0.00 | 0.00 | 0.00 | 52 | 1019.6 |
| 20260501190541 | 15 | 0 | 1.6 | 4.8 | 0.00 | 0.00 | 0.00 | 54 | 1019.5 |
| 20260501190049 | 15 | 77 | 0.0 | 8.0 | 0.00 | 0.00 | 0.00 | 52 | 1019.4 |
| 20260501185541 | 16 | 63 | 1.6 | 8.0 | 0.00 | 0.00 | 0.00 | 52 | 1019.2 |
| 20260501185044 | 16 | 84 | 1.6 | 8.0 | 0.00 | 0.00 | 0.00 | 51 | 1018.9 |
| 20260501184605 | 16 | 0 | 3.2 | 14.5 | 0.00 | 0.00 | 0.00 | 51 | 1018.9 |
| 20260501184042 | 16 | 56 | 0.0 | 17.7 | 0.00 | 0.00 | 0.00 | 49 | 1018.7 |
| 20260501183545 | 17 | 311 | 12.9 | 17.7 | 0.00 | 0.00 | 0.00 | 46 | 1018.6 |
| 20260501183057 | 16 | 43 | 1.6 | 8.0 | 0.00 | 0.00 | 0.00 | 49 | 1018.5 |
| 20260501182546 | 16 | 96 | 4.8 | 8.0 | 0.00 | 0.00 | 0.00 | 48 | 1018.4 |
| 20260501182045 | 16 | 143 | 0.0 | 6.4 | 0.00 | 0.00 | 0.00 | 49 | 1018.4 |
| 20260501181554 | 16 | 83 | 1.6 | 12.9 | 0.00 | 0.00 | 0.00 | 51 | 1018.2 |
| 20260501181041 | 17 | 89 | 1.6 | 12.9 | 0.00 | 0.00 | 0.00 | 52 | 1018.2 |
| 20260501180541 | 17 | 36 | 8.0 | 12.9 | 0.00 | 0.00 | 0.00 | 46 | 1018.1 |
| 20260501180058 | 17 | 282 | 3.2 | 8.0 | 0.00 | 0.00 | 0.00 | 47 | 1018.0 |
| 20260501175542 | 17 | 55 | 4.8 | 12.9 | 0.00 | 0.00 | 0.00 | 48 | 1017.9 |
| 20260501175041 | 18 | 16 | 4.8 | 17.7 | 0.00 | 0.00 | 0.00 | 45 | 1017.7 |
| 20260501174601 | 18 | 273 | 9.7 | 20.9 | 0.00 | 0.00 | 0.00 | 45 | 1017.6 |
| 20260501174041 | 18 | 252 | 12.9 | 20.9 | 0.00 | 0.00 | 0.00 | 44 | 1017.5 |
| 20260501173541 | 18 | 4 | 1.6 | 19.3 | 0.00 | 0.00 | 0.00 | 46 | 1017.4 |
| 20260501173111 | 18 | 40 | 8.0 | 19.3 | 0.00 | 0.00 | 0.00 | 47 | 1017.4 |
| 20260501172547 | 18 | 291 | 12.9 | 19.3 | 0.00 | 0.00 | 0.00 | 43 | 1017.3 |
| 20260501172044 | 18 | 268 | 9.7 | 17.7 | 0.00 | 0.00 | 0.00 | 42 | 1017.3 |
| 20260501171558 | 18 | 297 | 6.4 | 14.5 | 0.00 | 0.00 | 0.00 | 43 | 1017.2 |
| 20260501171044 | 19 | 302 | 6.4 | 17.7 | 0.00 | 0.00 | 0.00 | 42 | 1017.1 |
| 20260501170543 | 19 | 349 | 6.4 | 17.7 | 0.00 | 0.00 | 0.00 | 43 | 1017.1 |
| 20260501170048 | 19 | 54 | 6.4 | 17.7 | 0.00 | 0.00 | 0.00 | 42 | 1017.0 |
| 20260501165544 | 20 | 60 | 3.2 | 16.1 | 0.00 | 0.00 | 0.00 | 42 | 1016.9 |
| 20260501165046 | 20 | 53 | 0.0 | 17.7 | 0.00 | 0.00 | 0.00 | 43 | 1017.0 |
| 20260501164600 | 20 | 89 | 8.0 | 20.9 | 0.00 | 0.00 | 0.00 | 43 | 1016.9 |
| 20260501164041 | 20 | 53 | 9.7 | 20.9 | 0.00 | 0.00 | 0.00 | 42 | 1016.9 |